KQA605 HKMO-HKJK

Flight info

Callsign KQA605
Flight time 0h 48m
Altitude 24000
Route NERAG1A UTIKU Q315 UTEPI UTEPI2C
Aircraft B738/M-SDE2E3FGHIRWXY/LB1

Departure

Time 2026-04-23 09:54
Airport Moi International Airport (HKMO)

Arrival

Time 2026-04-23 10:42
Airport Jomo Kenyatta International Airport (HKJK)
Time Latitude Longitude Altitude Speed Heading
2026-04-23 09:44 -4.03174 39.60162 204 ft 0 kts 119°
2026-04-23 09:48 -4.03168 39.60153 204 ft 2 kts 119°
2026-04-23 09:49 -4.03160 39.60137 204 ft 3 kts 119°
2026-04-23 09:49 -4.03150 39.60120 204 ft 3 kts 118°
2026-04-23 09:49 -4.03143 39.60101 204 ft 3 kts 102°
2026-04-23 09:49 -4.03141 39.60080 204 ft 3 kts 83°
2026-04-23 09:50 -4.03147 39.60061 204 ft 3 kts 65°
2026-04-23 09:50 -4.03147 39.60060 204 ft 0 kts 63°
2026-04-23 09:50 -4.03129 39.60084 204 ft 19 kts 35°
2026-04-23 09:50 -4.02963 39.60173 204 ft 34 kts
2026-04-23 09:51 -4.02832 39.60051 204 ft 26 kts 304°
2026-04-23 09:51 -4.02748 39.60033 204 ft 32 kts 28°
2026-04-23 09:51 -4.02465 39.60193 204 ft 58 kts 29°
2026-04-23 09:51 -4.02062 39.60431 204 ft 73 kts 20°
2026-04-23 09:52 -4.01755 39.60588 204 ft 11 kts 31°
2026-04-23 09:52 -4.01642 39.60655 204 ft 32 kts 30°
2026-04-23 09:52 -4.01442 39.60745 204 ft 23 kts 346°
2026-04-23 09:52 -4.01361 39.60692 204 ft 11 kts 313°
2026-04-23 09:53 -4.01344 39.60631 204 ft 8 kts 250°
2026-04-23 09:53 -4.01398 39.60586 204 ft 24 kts 211°
2026-04-23 09:53 -4.01753 39.60390 204 ft 93 kts 203°
2026-04-23 09:53 -4.02519 39.59960 239 ft 152 kts 208°
2026-04-23 09:54 -4.03463 39.59419 958 ft 154 kts 209°
2026-04-23 09:54 -4.04331 39.58832 1932 ft 150 kts 220°
2026-04-23 09:54 -4.04856 39.57859 2508 ft 179 kts 255°
2026-04-23 09:54 -4.04631 39.56509 2871 ft 220 kts 288°
2026-04-23 09:55 -4.04042 39.55003 3327 ft 243 kts 284°
2026-04-23 09:55 -4.03608 39.53283 3851 ft 265 kts 279°
2026-04-23 09:55 -4.03216 39.51411 4485 ft 282 kts 277°
2026-04-23 09:55 -4.02845 39.49425 5180 ft 297 kts 278°
2026-04-23 09:56 -4.02452 39.47412 6034 ft 281 kts 279°
2026-04-23 09:56 -4.02057 39.45643 6962 ft 246 kts 280°
2026-04-23 09:56 -4.01657 39.43953 7636 ft 259 kts 281°
2026-04-23 09:56 -4.01222 39.42114 8128 ft 277 kts 281°
2026-04-23 09:57 -4.00773 39.40226 8983 ft 280 kts 281°
2026-04-23 09:57 -4.00078 39.38406 9809 ft 287 kts 297°
2026-04-23 09:57 -3.98922 39.36778 10745 ft 286 kts 310°
2026-04-23 09:57 -3.97908 39.35654 11374 ft 289 kts 314°
2026-04-23 09:58 -3.97613 39.35342 11546 ft 290 kts 314°
2026-04-23 09:58 -3.96201 39.33890 12373 ft 292 kts 315°
2026-04-23 09:58 -3.94769 39.32424 13171 ft 295 kts 315°
2026-04-23 09:58 -3.93345 39.30964 13933 ft 298 kts 315°
2026-04-23 09:59 -3.91873 39.29453 14720 ft 301 kts 315°
2026-04-23 09:59 -3.90422 39.27963 15471 ft 304 kts 316°
2026-04-23 09:59 -3.88941 39.26442 16198 ft 307 kts 316°
2026-04-23 09:59 -3.87444 39.24903 16925 ft 309 kts 316°
2026-04-23 10:00 -3.86423 39.23852 17381 ft 312 kts 316°
2026-04-23 10:00 -3.84403 39.21775 18300 ft 316 kts 316°
2026-04-23 10:00 -3.82864 39.20189 18949 ft 320 kts 316°
2026-04-23 10:00 -3.81305 39.18585 19578 ft 323 kts 316°
2026-04-23 10:01 -3.79731 39.16963 20214 ft 327 kts 316°
2026-04-23 10:01 -3.78137 39.15323 20833 ft 330 kts 316°
2026-04-23 10:01 -3.76529 39.13666 21431 ft 334 kts 316°
2026-04-23 10:01 -3.74903 39.11989 22003 ft 337 kts 316°
2026-04-23 10:02 -3.73281 39.10317 22562 ft 340 kts 316°
2026-04-23 10:02 -3.71624 39.08609 23101 ft 344 kts 316°
2026-04-23 10:02 -3.69952 39.06884 23635 ft 347 kts 317°
2026-04-23 10:02 -3.68257 39.05136 23918 ft 353 kts 316°
2026-04-23 10:03 -3.66541 39.03368 23957 ft 354 kts 317°
2026-04-23 10:03 -3.64827 39.01602 23961 ft 352 kts 317°
2026-04-23 10:03 -3.63127 38.99849 23965 ft 350 kts 317°
2026-04-23 10:03 -3.61428 38.98100 23968 ft 350 kts 317°
2026-04-23 10:04 -3.59731 38.96351 23969 ft 350 kts 317°
2026-04-23 10:04 -3.58034 38.94603 23971 ft 350 kts 317°
2026-04-23 10:04 -3.56336 38.92854 23973 ft 350 kts 317°
2026-04-23 10:04 -3.54662 38.91129 23967 ft 340 kts 317°
2026-04-23 10:05 -3.53040 38.89459 23960 ft 327 kts 317°
2026-04-23 10:05 -3.51483 38.87859 23954 ft 314 kts 317°
2026-04-23 10:05 -3.49991 38.86323 23949 ft 302 kts 317°
2026-04-23 10:05 -3.48551 38.84842 23943 ft 290 kts 318°
2026-04-23 10:06 -3.47176 38.83429 23938 ft 279 kts 319°
2026-04-23 10:06 -3.45836 38.82052 23861 ft 272 kts 319°
2026-04-23 10:06 -3.44529 38.80709 23856 ft 267 kts 319°
2026-04-23 10:06 -3.43227 38.79371 23844 ft 270 kts 319°
2026-04-23 10:07 -3.41907 38.78017 23847 ft 283 kts 319°
2026-04-23 10:07 -3.40487 38.76558 23890 ft 303 kts 318°
2026-04-23 10:07 -3.38975 38.74996 23913 ft 322 kts 317°
2026-04-23 10:07 -3.37370 38.73335 23927 ft 341 kts 317°
2026-04-23 10:08 -3.35670 38.71578 23937 ft 360 kts 317°
2026-04-23 10:08 -3.33880 38.69724 23794 ft 381 kts 316°
2026-04-23 10:08 -3.31991 38.67772 23746 ft 398 kts 316°
2026-04-23 10:09 -3.28064 38.63706 23739 ft 409 kts 316°
2026-04-23 10:09 -3.26089 38.61663 23736 ft 408 kts 316°
2026-04-23 10:09 -3.24104 38.59610 23738 ft 415 kts 316°
2026-04-23 10:09 -3.22068 38.57503 23741 ft 425 kts 316°
2026-04-23 10:10 -3.19993 38.55358 23748 ft 431 kts 316°
2026-04-23 10:10 -3.17914 38.53208 23739 ft 424 kts 316°
2026-04-23 10:10 -3.15908 38.51136 23735 ft 407 kts 316°
2026-04-23 10:10 -3.13996 38.49162 23728 ft 393 kts 316°
2026-04-23 10:11 -3.12129 38.47234 23726 ft 381 kts 316°
2026-04-23 10:11 -3.10261 38.45306 23727 ft 391 kts 316°
2026-04-23 10:11 -3.08344 38.43327 23734 ft 400 kts 316°
2026-04-23 10:11 -3.06392 38.41313 23732 ft 406 kts 316°
2026-04-23 10:12 -3.04433 38.39290 23730 ft 399 kts 316°
2026-04-23 10:12 -3.02540 38.37336 23727 ft 384 kts 316°
2026-04-23 10:12 -3.01309 38.36065 23726 ft 384 kts 316°
2026-04-23 10:12 -2.99413 38.34108 23731 ft 395 kts 316°
2026-04-23 10:13 -2.97477 38.32109 23732 ft 403 kts 316°
2026-04-23 10:13 -2.95519 38.30088 23733 ft 405 kts 316°
2026-04-23 10:13 -2.93587 38.28093 23730 ft 392 kts 316°
2026-04-23 10:13 -2.91716 38.26163 23727 ft 382 kts 316°
2026-04-23 10:14 -2.89838 38.24226 23730 ft 393 kts 316°
2026-04-23 10:14 -2.87910 38.22235 23734 ft 402 kts 316°
2026-04-23 10:14 -2.85951 38.20213 23733 ft 407 kts 316°
2026-04-23 10:14 -2.84005 38.18205 23732 ft 395 kts 316°
2026-04-23 10:15 -2.81527 38.15649 23727 ft 383 kts 316°
2026-04-23 10:15 -2.80284 38.14366 23730 ft 391 kts 316°
2026-04-23 10:15 -2.78368 38.12390 23732 ft 400 kts 316°
2026-04-23 10:15 -2.77709 38.11710 23732 ft 402 kts 316°
2026-04-23 10:16 -2.77051 38.11031 23733 ft 404 kts 316°
2026-04-23 10:16 -2.69578 38.03323 23732 ft 395 kts 316°
2026-04-23 10:17 -2.68260 38.01965 23734 ft 401 kts 316°
2026-04-23 10:17 -2.67274 38.00948 23734 ft 404 kts 316°
2026-04-23 10:17 -2.65965 37.99597 23735 ft 406 kts 316°
2026-04-23 10:17 -2.64020 37.97590 23733 ft 394 kts 316°
2026-04-23 10:18 -2.62146 37.95658 23728 ft 382 kts 316°
2026-04-23 10:18 -2.60270 37.93724 23732 ft 393 kts 316°
2026-04-23 10:18 -2.58345 37.91737 23734 ft 402 kts 316°
2026-04-23 10:18 -2.56387 37.89718 23736 ft 407 kts 316°
2026-04-23 10:19 -2.54431 37.87700 23735 ft 397 kts 316°
2026-04-23 10:19 -2.52542 37.85752 23729 ft 383 kts 316°
2026-04-23 10:19 -2.50682 37.83836 23731 ft 389 kts 316°
2026-04-23 10:19 -2.48773 37.81868 23735 ft 399 kts 316°
2026-04-23 10:20 -2.46823 37.79858 23735 ft 405 kts 316°
2026-04-23 10:20 -2.46262 37.79279 23737 ft 407 kts 316°
2026-04-23 10:21 -2.45188 37.78171 23736 ft 403 kts 316°
2026-04-23 10:21 -2.43300 37.76224 23731 ft 389 kts 316°
2026-04-23 10:21 -2.41420 37.74286 23534 ft 390 kts 316°
2026-04-23 10:22 -2.39511 37.72317 23287 ft 398 kts 316°
2026-04-23 10:22 -2.37570 37.70316 23037 ft 402 kts 316°
2026-04-23 10:22 -2.35622 37.68307 22786 ft 402 kts 316°
2026-04-23 10:22 -2.33676 37.66301 22537 ft 400 kts 316°
2026-04-23 10:23 -2.31743 37.64309 22284 ft 398 kts 316°
2026-04-23 10:23 -2.29823 37.62328 22034 ft 396 kts 315°
2026-04-23 10:23 -2.27915 37.60361 21784 ft 394 kts 315°
2026-04-23 10:23 -2.26007 37.58393 21533 ft 392 kts 315°
2026-04-23 10:24 -2.24110 37.56437 21273 ft 391 kts 315°
2026-04-23 10:24 -2.22243 37.54517 21022 ft 389 kts 315°
2026-04-23 10:24 -2.20363 37.52577 20771 ft 387 kts 315°
2026-04-23 10:24 -2.18484 37.50639 20520 ft 386 kts 315°
2026-04-23 10:25 -2.16616 37.48712 20269 ft 384 kts 315°
2026-04-23 10:25 -2.14759 37.46798 20019 ft 383 kts 315°
2026-04-23 10:25 -2.12911 37.44894 19768 ft 381 kts 315°
2026-04-23 10:25 -2.11068 37.42996 19518 ft 379 kts 315°
2026-04-23 10:26 -2.09247 37.41093 19267 ft 378 kts 314°
2026-04-23 10:26 -2.07447 37.39184 19017 ft 376 kts 314°
2026-04-23 10:26 -2.05636 37.37287 18764 ft 375 kts 317°
2026-04-23 10:26 -2.03536 37.35836 18516 ft 372 kts 336°
2026-04-23 10:27 -2.01770 37.35158 18484 ft 370 kts 343°
2026-04-23 10:27 -1.99321 37.34375 18480 ft 370 kts 343°
2026-04-23 10:27 -1.96861 37.33628 18480 ft 370 kts 345°
2026-04-23 10:27 -1.94391 37.32912 18480 ft 370 kts 345°
2026-04-23 10:28 -1.91919 37.32213 18480 ft 370 kts 346°
2026-04-23 10:28 -1.89441 37.31525 18480 ft 370 kts 346°
2026-04-23 10:28 -1.86958 37.30846 18397 ft 370 kts 346°
2026-04-23 10:28 -1.84456 37.30169 17845 ft 374 kts 346°
2026-04-23 10:29 -1.81940 37.29494 17318 ft 375 kts 346°
2026-04-23 10:29 -1.79424 37.28824 16834 ft 373 kts 346°
2026-04-23 10:29 -1.76913 37.28162 16357 ft 372 kts 347°
2026-04-23 10:29 -1.74420 37.27502 15885 ft 370 kts 347°
2026-04-23 10:30 -1.71944 37.26850 15418 ft 368 kts 347°
2026-04-23 10:30 -1.69470 37.26202 14955 ft 366 kts 347°
2026-04-23 10:30 -1.67021 37.25558 14495 ft 364 kts 347°
2026-04-23 10:30 -1.64589 37.24919 14037 ft 357 kts 347°
2026-04-23 10:31 -1.62214 37.24299 13594 ft 349 kts 347°
2026-04-23 10:31 -1.59879 37.23687 13159 ft 344 kts 347°
2026-04-23 10:31 -1.57602 37.23091 12737 ft 340 kts 347°
2026-04-23 10:31 -1.55330 37.22498 12316 ft 336 kts 347°
2026-04-23 10:32 -1.53077 37.21907 11901 ft 335 kts 347°
2026-04-23 10:32 -1.50819 37.21316 11486 ft 336 kts 347°
2026-04-23 10:32 -1.48555 37.20723 11122 ft 334 kts 347°
2026-04-23 10:32 -1.46346 37.20145 10935 ft 322 kts 347°
2026-04-23 10:33 -1.44224 37.19597 10760 ft 309 kts 347°
2026-04-23 10:33 -1.42172 37.19064 10591 ft 300 kts 347°
2026-04-23 10:33 -1.40167 37.18536 10425 ft 294 kts 347°
2026-04-23 10:33 -1.38209 37.18023 10255 ft 290 kts 347°
2026-04-23 10:34 -1.36258 37.17509 10047 ft 288 kts 347°
2026-04-23 10:34 -1.34345 37.17009 9907 ft 278 kts 347°
2026-04-23 10:34 -1.32539 37.16536 9793 ft 265 kts 347°
2026-04-23 10:34 -1.30794 37.16081 9686 ft 252 kts 348°
2026-04-23 10:35 -1.29116 37.15644 9498 ft 245 kts 347°
2026-04-23 10:35 -1.27552 37.15074 9293 ft 236 kts 335°
2026-04-23 10:35 -1.26190 37.14231 9161 ft 222 kts 326°
2026-04-23 10:35 -1.24993 37.13323 8997 ft 208 kts 323°
2026-04-23 10:36 -1.23874 37.12474 8841 ft 196 kts 325°
2026-04-23 10:36 -1.22791 37.11684 8704 ft 190 kts 326°
2026-04-23 10:36 -1.21727 37.10910 8581 ft 188 kts 327°
2026-04-23 10:36 -1.20733 37.10061 8432 ft 189 kts 310°
2026-04-23 10:37 -1.20336 37.08885 8302 ft 179 kts 273°
2026-04-23 10:37 -1.20684 37.07729 8180 ft 170 kts 243°
2026-04-23 10:37 -1.21346 37.06788 8044 ft 163 kts 233°
2026-04-23 10:37 -1.22067 37.05950 7895 ft 156 kts 235°
2026-04-23 10:38 -1.22744 37.05112 7765 ft 157 kts 238°
2026-04-23 10:38 -1.23395 37.04236 7641 ft 157 kts 239°
2026-04-23 10:38 -1.24033 37.03353 7514 ft 155 kts 239°
2026-04-23 10:38 -1.24657 37.02503 7427 ft 149 kts 235°
2026-04-23 10:39 -1.25293 37.01693 7256 ft 147 kts 238°
2026-04-23 10:39 -1.25700 37.01145 7201 ft 144 kts 238°
2026-04-23 10:39 -1.26328 37.00347 7032 ft 150 kts 230°
2026-04-23 10:39 -1.26972 36.99526 6733 ft 149 kts 230°
2026-04-23 10:40 -1.27577 36.98727 6490 ft 142 kts 230°
2026-04-23 10:40 -1.28164 36.97956 6227 ft 138 kts 231°
2026-04-23 10:40 -1.28730 36.97186 5944 ft 137 kts 234°
2026-04-23 10:40 -1.29255 36.96402 5672 ft 134 kts 233°
2026-04-23 10:41 -1.29818 36.95660 5526 ft 133 kts 231°
2026-04-23 10:41 -1.30391 36.94923 5440 ft 136 kts 238°
2026-04-23 10:41 -1.30929 36.94130 5360 ft 138 kts 230°
2026-04-23 10:41 -1.31477 36.93389 5337 ft 125 kts 230°
2026-04-23 10:42 -1.31832 36.92901 5336 ft 49 kts 229°
2026-04-23 10:42 -1.31955 36.92803 5336 ft 5 kts 152°
2026-04-23 10:42 -1.32007 36.92840 5336 ft 13 kts 144°
2026-04-23 10:42 -1.32102 36.92907 5336 ft 11 kts 141°
2026-04-23 10:43 -1.32169 36.92940 5336 ft 16 kts 173°
2026-04-23 10:43 -1.32277 36.92859 5336 ft 25 kts 233°
2026-04-23 10:43 -1.32393 36.92698 5336 ft 27 kts 235°
2026-04-23 10:43 -1.32475 36.92584 5336 ft 13 kts 233°
2026-04-23 10:44 -1.32527 36.92512 5336 ft 15 kts 234°
2026-04-23 10:44 -1.32594 36.92417 5336 ft 19 kts 235°
2026-04-23 10:44 -1.32670 36.92314 5336 ft 18 kts 236°
2026-04-23 10:44 -1.32755 36.92212 5336 ft 18 kts 207°
2026-04-23 10:45 -1.32866 36.92253 5336 ft 19 kts 166°
2026-04-23 10:45 -1.32992 36.92219 5336 ft 21 kts 184°
2026-04-23 10:45 -1.33146 36.92234 5336 ft 22 kts 161°
2026-04-23 10:45 -1.33237 36.92275 5336 ft 15 kts 166°
2026-04-23 10:46 -1.33352 36.92292 5336 ft 15 kts 159°
2026-04-23 10:46 -1.33404 36.92322 5336 ft 7 kts 143°
2026-04-23 10:46 -1.33431 36.92362 5336 ft 3 kts 66°
2026-04-23 10:46 -1.33411 36.92376 5336 ft 9 kts 24°
2026-04-23 10:47 -1.33394 36.92383 5336 ft 2 kts 21°
2026-04-23 10:47 -1.33362 36.92394 5336 ft 3 kts 19°
2026-04-23 10:47 -1.33355 36.92396 5336 ft 0 kts 20°
2026-04-23 10:53 -1.32623 36.92378 5336 ft 18 kts 234°